YAOGAN 17B

导读 | 豆包AI

YAOGAN 17B(遥感十七B卫星)是中国于2013年9月1日8时发射的遥感卫星,隶属于中国遥感卫星系列。遥感卫星系列主要用于国土资源普查、农业估产、灾害监测与测绘等领域,可获取地球表面多维度观测数据,服务国民经济建设,同时开展空间科学技术试验验证,推动中国航天遥感技术持续发展,提升中国对地观测能力与空间应用水平。

Basic Information
目录编号:
39240
目录名称:
YAOGAN 17B
国际标识:
2013-046B
轨道中心:
EARTH
卫星名称:
YAOGAN 17B
卫星全名:
--
卫星状态:
在轨 (已飞行4577 天)
发射日期:
2013-09-01 UTC
国别 :
中国 (CN)
星等 :
--
Orbit Information
数据来源 国际轨道数据 AOE轨道数据
星历时间 2026-03-14T07:47:43+0800
4小时前
查看轨道信息
2026-03-13T15:00:00+0800
21小时前
查看轨道信息
半长轴 7467.134km 7467.139km
偏心率 0.0417903 0.0417969
轨道倾角 63.391° 63.391°
近地点辐角 10.965° 10.953°
升交点赤经 336.377° 338.181°
平近点角 350.015° 200.401°
近地点 776.943km 776.898km
远地点 1401.051km 1401.106km
周期 107.026分钟 107.026分钟
每日圈数 13.454633 13.454621
Detailed Information
使用方式:
暂无
2D Orbit Map
3D Orbit Map
Orbit Altitude Analysis Chart
Orbit Inclination Analysis Chart
Orbit Comprehensive Analysis Chart
View Comprehensive Chart